Location: Unspecified
(0.0000°N, 0.0000°E)
Time: 04:28:59

YUBILEINY - Pass Details

Date: 11 December 2017
Orbit: 1478 x 1509 km, 82.5° (Epoch: 21 March)

Event Time Altitude Azimuth Distance (km) Brightness Sun altitude
Rises 04:21:48 0° 211° (SSW) 4,613 ? -20.9°
Reaches altitude 10° 04:25:24 10° 224° (SW) 3,635 ? -20.1°
Maximum altitude 04:31:56 24° 273° (W) 2,715 ? -18.6°
Enters shadow 04:32:16 24° 276° (W) 2,718 ? -18.6°
